x

South Huron - 43nm East Of Oscoda, Mi (45008) Wave Buoy

6:50am - Tue 16th Sep 2014 All times are CDT. -5 hours from GMT.

  • Sig Wave height 1.6ft
  • Swell Direction
  • Peak Period 4s
  • Average Period 3s
  • Wind
    11mph
  • Sea Temp 58°f
  • Air Temp 55°f
  • Sea Pressure 1019.7mb
  • South Huron - 43nm East Of Oscoda, Mi
  • South Huron - 43nm East Of Oscoda, Mi

More Historic Weather Station data

Upgrade to MSW Pro to gain access to the past 30 days of data for over 8000 Wavebouys and Weather Stations around the globe.

Join Pro

Comparision Forecast

View Surf forecast
   
Tue 09/16 6:50am 1.6ft 4s 3s 11
mph
1019.7mb 58f 55f
5:50am 1.6ft 4s 3s 13 16 mph 1019.2mb 58f 54f
4:50am 1.6ft 3s 3s 13 16 mph 1018.5mb 58f 55f
3:50am 1.3ft 3s 3s 13 16 mph 1018.5mb 58f 55f
2:50am 1.3ft 3s 3s 13 16 mph 1018.2mb 58f 56f
1:50am 1.3ft 3s 3s 13 16 mph 1017.9mb 58f 56f
12:50am 1ft 3s 3s 13
mph
1017.8mb 58f 56f
Mon 09/15 11:50pm 1ft 3s 3s 11 13 mph 1017.8mb 58f 57f
10:50pm 1.3ft 3s 3s 9 11 mph 1017.9mb 58f 56f
9:50pm 1ft 3s 3s 11 13 mph 1017.9mb 58f 58f
8:50pm 1ft 3s 3s 11 13 mph 1017.9mb 58f 57f
7:50pm 1ft 3s 3s 11
mph
1017.7mb 58f 57f
6:50pm 1.3ft 3s 3s 9 13 mph 1017.5mb 58f 57f
5:50pm 1ft 4s 3s 16 18 mph 1017.5mb 58f 57f
4:50pm 1.3ft 4s 3s 9 11 mph 1017.5mb 58f 57f
3:50pm 1.6ft 4s 3s 9 11 mph 1017.7mb 58f 57f
2:50pm 1.6ft 5s 4s 11 13 mph 1018.1mb 58f 57f
1:50pm 2ft 5s 4s 11 13 mph 1018.6mb 59f 57f
12:50pm 2.5ft 4s 4s 11 13 mph 1018.5mb 59f 56f
11:50am 3ft 4s 4s 13 16 mph 1019mb 59f 56f
10:50am 3ft 5s 4s 18 20 mph 1019.4mb 59f 56f
9:50am 3.5ft 4s 4s 18 20 mph 1019.6mb 59f 56f
8:50am 3.5ft 4s 4s 20 22 mph 1019.4mb 59f 57f
7:50am 3ft 4s 4s 18 22 mph 1019.6mb 59f 58f
6:50am 2.5ft 4s 3s 18 22 mph 1019.8mb 59f 58f
5:50am 2.5ft 4s 3s 18 20 mph 1019.8mb 59f 57f
4:50am 2.5ft 4s 4s 18 20 mph 1019.9mb 59f 57f
3:50am 2.5ft 4s 4s 18 20 mph 1020mb 59f 57f
2:50am 2.5ft 4s 4s 18 22 mph 1020.2mb 59f 57f
1:50am 2.5ft 4s 4s 16 20 mph 1020.4mb 59f 58f
12:50am 2.5ft 4s 4s 16 18 mph 1020.6mb 59f 58f
Sun 09/14 11:50pm 2.5ft 4s 4s 16 20 mph 1020.7mb 59f 58f
10:50pm 2.5ft 4s 3s 18 20 mph 1020.7mb 59f 58f
9:50pm 2ft 4s 3s 16 18 mph 1020.8mb 60f 59f
8:50pm 1.6ft 3s 3s 18 22 mph 1020.9mb 60f 59f
7:50pm 1.6ft 3s 3s 13 18 mph 1021.5mb 60f 59f
6:50pm 1.6ft 4s 3s 13 16 mph 1021.6mb 60f 58f
5:50pm 1.3ft 3s 3s 11 16 mph 1021.7mb 60f 58f
4:50pm 1.3ft 3s 3s 9 11 mph 1022mb 60f 58f
3:50pm 1.6ft 3s 3s 11 13 mph 1022.5mb 60f 57f
2:50pm 1.6ft 3s 3s 13 18 mph 1023.1mb 60f 57f
1:50pm 1.6ft 3s 3s 13 16 mph 1023.7mb 60f 56f
12:50pm 1.6ft 4s 3s 16 20 mph 1024.5mb 60f 56f
11:50am 1.6ft 3s 3s 16 18 mph 1024.9mb 60f 56f
10:50am 1.6ft 3s 3s 16 18 mph 1025.6mb 60f 56f
9:50am 1ft 3s 3s 13 18 mph 1025.8mb 59f 55f
8:50am 1.3ft 3s 3s 11 13 mph 1025.9mb 59f 55f
7:50am 1.3ft 3s 3s 9 13 mph 1026mb 59f 55f
6:50am 1.3ft 4s 3s 9 13 mph 1026.4mb 59f 55f
5:50am 1ft 4s 3s 7 9 mph 1026.4mb 59f 54f
4:50am 1.3ft 4s 3s 2 4 mph 1026.6mb 59f 54f
3:50am 1.3ft 4s 3s 4
mph
1026.7mb 59f 54f
2:50am 1ft 4s 3s 2 4 mph 1026.4mb 59f 53f
1:50am 1ft 4s 3s 2 4 mph 1026.7mb 60f 53f
12:50am 1ft 4s 3s 2 4 mph 1026.5mb 60f 54f
Sat 09/13 11:50pm 1.3ft 4s 4s 4 7 mph 1026.3mb 60f 53f
10:50pm 1.6ft 4s 4s 4
mph
1026.4mb 60f 53f
9:50pm 2ft 5s 4s 7 9 mph 1026.1mb 60f 53f
8:50pm 2ft 5s 4s 7 11 mph 1025.8mb 60f 53f
7:50pm 2.5ft 5s 4s 9 13 mph 1025.6mb 60f 53f
6:50pm 3ft 5s 4s 11 13 mph 1025.1mb 60f 52f
5:50pm 3.5ft 5s 4s 13 16 mph 1024.8mb 60f 53f
3:50pm 4.5ft 5s 5s 20 25 mph 1024mb 59f 52f
2:50pm 4.5ft 5s 4s 22 27 mph 1023.2mb 59f 52f
1:50pm 5ft 6s 4s 22 27 mph 1022.2mb 59f 52f
12:50pm 5.5ft 5s 4s 22 27 mph 1021.9mb 59f 52f
11:50am 5ft 5s 4s 27 31 mph 1021.1mb 59f 51f
10:50am 3.5ft 4s 4s 29 34 mph 1019.7mb 59f 51f
9:50am 2.5ft 5s 4s 27 31 mph 1019mb 60f 51f
8:50am 3ft 5s 4s 9 11 mph 1018.6mb 60f 52f
7:50am 3ft 5s 4s 7 9 mph 1018.6mb 60f 52f
6:50am 3.5ft 4s 4s 16 20 mph 1018.2mb 60f 53f
5:50am 3.5ft 4s 4s 18 20 mph 1018.3mb 60f 53f
4:50am 2.5ft 4s 4s 18 22 mph 1018.4mb 60f 54f
3:50am 2.5ft 4s 4s 18 22 mph 1018.6mb 60f 54f
2:50am 2.5ft 4s 4s 20 25 mph 1019.7mb 60f 54f
1:50am 2.5ft 4s 4s 20 25 mph 1020.1mb 61f 54f
12:50am 2.5ft 4s 4s 18 22 mph 1021.2mb 61f 54f
Fri 09/12 11:50pm 2.5ft 4s 4s 18 20 mph 1022.2mb 60f 54f
10:50pm 2.5ft 4s 3s 20 22 mph 1022.4mb 60f 53f
9:50pm 1.6ft 4s 3s 20 25 mph 1022.5mb 60f 54f
8:50pm 1.3ft 4s 3s 16 18 mph 1023.5mb 60f 54f
7:50pm 1.3ft 4s 3s 13 16 mph 1023.8mb 60f 54f
6:50pm 1.6ft 4s 3s 11 13 mph 1024.4mb 60f 54f
5:50pm 1.6ft 4s 3s 13 18 mph 1024.2mb 60f 54f
4:50pm 2ft 4s 4s 13 16 mph 1024.3mb 60f 53f
3:50pm 2.5ft 4s 4s 13 18 mph 1024.6mb 60f 53f
2:50pm 2.5ft 4s 4s 13 18 mph 1025.3mb 60f 52f
1:50pm 2.5ft 5s 4s 16 20 mph 1025.9mb 60f 52f